Flag for Germany Weather past 2 weeks in Witzenhausen, Hesse, Germany

52 °F

Partly cloudy.

Feels Like: 47 °F
Forecast: 44 / 50 °F
Wind: 15 mph from West

Location: Fritzlar Airport

Current Time: Dec 1, 2015 at 3:36:04 AM

Latest Report: Dec 1, 2015 at 2:20 AM

Visibility: N/A

Pressure: 29.92 "Hg

Humidity: 82%

Dew point: 46 °F

Location of WitzenhausenLocation

Historic Weather in Witzenhausen — Graph


Witzenhausen temperature yesterday

Maximum temperature yesterday: 52 °F (at 11:20 PM)
Minimum temperature yesterday: 45 °F (at 7:20 AM)
Average temperature yesterday: 47 °F

Past Weeks' High & Low Weather Summary

High59 °F (Nov 17, 1:20 PM)100% (Nov 23, 9:20 PM)30.24 "Hg (Nov 23, 9:20 PM)
Low27 °F (Nov 23, 10:20 PM)55% (Nov 18, 11:20 AM)29.39 "Hg (Nov 21, 6:20 AM)
Average42 °F84%29.85 "Hg
* Reported Nov 16 12:20 AM — Dec 1 12:20 AM, Witzenhausen, Weather by CustomWeather, © 2015

Note: Actual official high and low records may vary slightly from our data, if they occured in-between our weather recording intervals... More about our weather records


Witzenhausen weather history for previous 24 hours

Time TempWeatherWind HumidityBarometerVisibility
12:20 AM
Tue, Dec 1
52 °FMostly cloudy.12 mph82%29.89 "HgN/A
11:20 PM
Mon, Nov 30
52 °FLight rain. Mostly cloudy.14 mph82%29.86 "HgN/A
10:20 PM50 °FLight rain. Mostly cloudy.15 mph82%29.86 "HgN/A
9:20 PM50 °FLight rain. Mostly cloudy.15 mph82%29.86 "HgN/A
8:20 PM48 °FLight rain. Overcast.14 mph87%29.86 "HgN/A
7:20 PM48 °FLight rain. Partly cloudy.13 mph87%29.86 "HgN/A
6:20 PM48 °FLight rain. Partly cloudy.13 mph87%29.89 "HgN/A
5:20 PM48 °FLight rain. Partly cloudy.15 mph87%29.89 "HgN/A
5:00 PM48 °FPartly cloudy.13 mph87%29.89 "HgN/A
4:20 PM48 °FPartly cloudy.14 mph87%29.89 "HgN/A
3:20 PM45 °FDrizzle. Partly sunny.12 mph93%29.92 "HgN/A
2:20 PM45 °FLight rain. Partly sunny.8 mph87%29.98 "HgN/A
1:20 PM45 °FLight rain. Partly sunny.8 mph81%30.04 "HgN/A
12:20 PM46 °FLight rain. Broken clouds.16 mph62%30.07 "HgN/A
11:20 AM46 °FPartly sunny.9 mph66%30.07 "HgN/A
10:20 AM46 °FBroken clouds.12 mph62%30.09 "HgN/A
9:20 AM45 °FBroken clouds.13 mph66%30.07 "HgN/A
8:20 AM45 °FBroken clouds.14 mph71%30.04 "HgN/A
7:20 AM45 °FPassing clouds.13 mph71%30.01 "HgN/A
6:20 AM46 °FPassing clouds.14 mph66%29.98 "HgN/A
5:20 AM48 °FOvercast.20 mph62%29.92 "HgN/A
4:20 AM48 °FPassing clouds.14 mph71%29.89 "HgN/A
3:20 AM48 °FMostly cloudy.14 mph71%29.89 "HgN/A
Weather by CustomWeather, © 2015

See weather overviewHow to use our weather pages